This demonstration page uses our WeatherBlox Daily Observations layout. Learn more.

Left ArrowRight Arrow

41.12389, -100.76542

Hourly Observations for March 4, 2020

Temp ( °F °C ) Dew Point ( °F °C ) Humidity (%) Winds ( mph kmh ) Pressure ( in mb ) Visibility ( mi km ) Precip ( " mm )
12:53 am 00:53 Clear 28 -2.2 23 -5 81 81 WNW 6 9 30.03 1017 10 16 0.00 0.00
2:53 am 02:53 Clear 25 -3.9 20 -6.7 81 81 NW 7 11 30.06 1018 10 16 0.00 0.00
3:53 am 03:53 Clear 25 -3.9 21 -6.1 85 85 NNW 6 9 30.04 1017 10 16 0.00 0.00
4:53 am 04:53 Clear 23 -5 20 -6.7 88 88 NNW 3 6 30.05 1018 10 16 0.00 0.00
5:53 am 05:53 Clear 22 -5.6 18 -7.8 85 85 NW 3 6 30.06 1018 10 16 0.00 0.00
6:53 am 06:53 Clear 22 -5.6 18 -7.8 85 85 NNW 5 7 30.06 1018 10 16 0.00 0.00
7:53 am 07:53 Sunny 25 -3.9 21 -6.1 85 85 WNW 5 7 30.07 1018 10 16 0.00 0.00
8:53 am 08:53 Sunny 35 1.7 27 -2.8 72 72 W 9 15 30.05 1018 10 16 0.00 0.00
9:53 am 09:53 Sunny 42 5.6 30 -1.1 62 62 WNW 8 13 30.03 1017 10 16 0.00 0.00
10:53 am 10:53 Sunny 53 11.7 28 -2.2 38 38 W 16 26 30.01 1016 10 16 0.00 0.00
11:53 am 11:53 Sunny 56 13.3 27 -2.8 33 33 SW 21 33 29.98 1015 10 16 0.00 0.00
12:53 pm 12:53 Sunny 61 16.1 25 -3.9 25 25 SW 22 35 29.92 1013 10 16 0.00 0.00
1:53 pm 13:53 Sunny 65 18.3 23 -5 20 20 WSW 20 31 29.85 1011 10 16 0.00 0.00
2:53 pm 14:53 Sunny 68 20 19 -7.2 15 15 WSW 24 39 29.82 1010 10 16 0.00 0.00
3:53 pm 15:53 Sunny 71 21.7 18 -7.8 13 13 SW 21 33 29.78 1009 10 16 0.00 0.00
4:53 pm 16:53 Sunny 72 22.2 14 -10 11 11 W 18 30 29.76 1008 10 16 0.00 0.00
5:53 pm 17:53 Sunny 68 20 13 -10.6 12 12 WNW 16 26 29.78 1009 10 16 0.00 0.00
6:53 pm 18:53 Clear 50 10 19 -7.2 29 29 NW 8 13 29.84 1010 10 16 0.00 0.00
7:53 pm 19:53 Clear 45 7.2 21 -6.1 39 39 NNW 9 15 29.88 1012 10 16 0.00 0.00
8:53 pm 20:53 Clear 44 6.7 24 -4.4 45 45 NNW 9 15 29.89 1012 10 16 0.00 0.00
9:53 pm 21:53 Clear 43 6.1 24 -4.4 47 47 NNW 8 13 29.91 1013 10 16 0.00 0.00
10:53 pm 22:53 Clear 37 2.8 24 -4.4 59 59 NNW 13 20 29.97 1015 10 16 0.00 0.00
11:53 pm 23:53 Clear 43 6.1 30 -1.1 60 60 N 9 15 30.02 1017 10 16 0.00 0.00

Powered by AerisWeather